Theta_e
320 320 318 315 315 317 319 322 323 326 327 326 324 323 319 315 312 313 313 322 322 320 314 311 313 313 314 314 315 314 316 318 317 316 316 315 316 314 313 314 317 319 327 329 333
318 319 318 316 315 316 319 322 322 324 327 325 322 321 316 314 312 313 315 316 319 317 317 314 313 313 313 314 313 312 316 318 315 315 315 315 315 313 314 315 318 332 331 333 332
321 319 318 316 314 316 319 321 322 326 327 324 319 314 314 313 312 312 318 317 316 312 313 312 312 312 313 314 314 313 316 315 315 314 313 314 313 313 311 314 316 332 333 331 331
320 319 318 316 315 316 320 321 323 325 325 320 314 313 312 313 315 312 314 319 318 316 316 313 311 312 313 314 314 315 313 314 314 313 314 313 312 312 312 312 312 331 333 332 331
320 319 317 316 314 316 319 322 324 323 319 317 314 315 313 310 309 311 314 315 316 313 315 320 315 312 313 314 314 314 314 313 313 313 314 313 313 313 312 312 311 329 331 332 332
318 318 317 316 315 316 318 322 322 319 317 318 314 314 311 311 312 310 315 312 312 312 312 318 320 313 313 313 313 312 313 312 312 313 312 314 313 313 312 311 317 330 331 330 331
318 318 316 316 315 316 317 321 322 315 315 315 314 313 311 311 311 311 314 312 311 312 311 311 314 314 313 313 311 311 312 311 311 312 313 311 314 313 310 311 318 325 327 327 328
318 317 316 316 316 316 317 320 320 316 314 314 315 313 311 312 314 313 313 315 314 312 311 312 312 311 311 311 311 311 310 311 311 311 312 312 314 312 307 309 315 318 320 324 324
317 317 316 315 316 316 319 322 320 317 314 316 315 310 312 311 311 312 313 314 313 314 311 313 312 311 311 310 310 310 310 309 312 310 311 312 314 312 306 307 309 308 308 312 318
317 316 315 315 316 318 320 321 320 318 317 315 313 311 308 309 311 312 313 314 310 310 311 313 311 313 311 309 312 311 310 310 310 310 310 311 311 310 307 306 306 304 304 303 306
317 315 315 316 317 318 319 317 315 316 314 312 311 307 307 309 310 312 312 310 308 309 311 313 316 318 314 310 310 309 310 311 310 309 311 309 310 309 308 307 305 304 304 304 304
316 315 315 316 317 318 316 314 314 313 314 311 311 308 309 309 309 309 311 309 308 310 308 312 316 314 312 310 310 310 310 309 310 310 310 309 309 308 308 307 306 306 304 305 305
316 315 315 316 317 316 315 309 311 311 308 309 309 309 310 309 308 308 308 308 308 309 308 311 312 314 311 310 311 310 309 308 310 309 309 309 307 307 308 307 307 306 305 305 305
316 315 316 316 316 314 311 310 310 309 306 309 309 309 310 308 310 308 310 309 308 310 308 308 309 310 310 310 310 311 308 308 309 307 308 305 307 303 303 305 307 307 305 305 304
315 315 316 315 315 312 310 309 308 306 309 307 308 308 308 308 308 309 308 308 308 307 307 310 308 308 310 310 308 310 309 309 308 308 306 307 304 303 305 306 304 305 304 304 304
315 316 316 315 313 311 309 309 308 307 312 309 308 310 309 308 308 307 308 307 306 308 307 308 307 308 308 308 308 308 308 307 306 304 307 306 304 304 304 307 307 306 304 303 303
315 316 315 313 313 310 310 308 308 310 307 308 309 310 309 308 309 307 308 307 307 308 309 307 308 307 307 308 308 308 306 308 308 308 307 305 304 305 304 304 305 306 304 304 305
315 315 314 313 312 310 310 307 303 305 308 306 310 309 309 309 309 307 306 309 305 306 306 307 309 307 307 308 308 308 307 310 309 309 305 305 307 306 305 305 303 306 305 304 304
315 314 313 313 311 311 309 311 305 306 308 309 309 309 309 308 308 307 307 310 306 304 307 307 308 307 307 308 308 308 309 307 308 302 309 305 304 305 305 306 308 307 306 305 305
315 313 312 312 311 310 309 308 306 306 308 309 310 307 309 309 309 306 306 306 306 304 305 306 310 309 307 307 307 308 307 310 308 310 307 305 306 305 307 306 309 308 307 306 305
313 314 311 311 311 309 310 307 308 310 307 308 309 308 307 307 307 307 307 307 305 305 305 307 309 310 307 308 309 307 307 307 309 308 309 308 305 303 305 306 306 308 306 305 305
309 313 311 311 312 307 308 305 309 312 312 311 307 307 308 308 308 307 307 307 306 304 306 309 308 310 308 307 307 307 307 307 309 308 307 307 306 304 304 307 305 304 306 305 305
308 307 310 311 312 311 305 308 310 312 312 311 309 308 306 308 309 308 307 308 305 307 307 308 308 309 310 308 308 308 307 306 306 306 309 308 306 304 306 308 305 304 305 305 304
305 311 309 311 304 310 307 308 311 311 314 313 311 308 307 308 308 309 310 311 307 307 309 309 309 309 309 308 308 309 308 306 307 309 308 306 306 306 307 308 308 306 305 305 305
302 311 309 312 310 309 307 308 311 313 313 312 313 309 309 308 309 311 312 311 310 309 309 309 306 306 309 308 308 308 309 308 307 308 308 308 306 305 306 305 308 306 306 305 305
302 308 304 310 308 309 308 307 310 312 313 314 312 312 311 309 308 311 311 310 309 310 306 305 302 306 306 308 308 309 307 308 308 307 307 305 305 304 305 304 308 307 307 307 306
298 300 309 310 308 309 308 308 309 310 310 311 312 312 312 313 310 309 309 308 308 309 308 307 304 301 303 305 306 310 308 307 307 306 306 306 308 304 305 305 307 308 307 308 307
Wind_Speed
37 44 42 38 37 39 38 39 32 31 27 25 20 17 17 16 13 13 9 11 14 14 6 12 11 8 6 3 3 3 3 3 5 6 5 2 5 0 2 6 3 1 7 9 33
37 47 44 41 35 38 39 40 34 33 29 26 22 20 19 17 11 11 11 14 18 11 15 14 5 5 2 2 3 4 3 7 5 4 5 3 5 7 5 4 4 3 5 29 33
38 47 46 44 35 39 40 39 36 35 31 27 26 23 21 17 4 8 26 19 19 16 12 13 16 7 5 2 3 6 5 3 1 3 6 7 6 1 10 2 7 10 13 18 21
38 48 44 42 38 38 39 37 38 36 33 31 31 26 22 13 6 1 11 24 27 20 11 6 2 8 5 6 5 5 8 3 3 4 3 8 8 5 5 7 9 15 22 20 16
43 48 45 41 39 39 38 39 38 35 33 33 32 26 19 3 7 2 16 23 24 18 18 6 2 5 5 4 5 3 4 2 3 3 3 3 4 6 6 2 7 13 14 15 17
36 48 46 42 40 38 38 38 37 33 31 30 32 25 6 5 3 4 22 24 20 15 10 12 5 2 1 3 5 6 3 5 3 2 2 5 3 5 5 3 9 16 14 13 17
47 47 45 43 41 40 37 38 38 37 32 31 31 19 2 8 2 5 30 28 21 18 7 7 7 6 2 6 5 3 5 3 3 3 4 6 2 6 5 5 11 10 10 9 14
55 47 45 44 42 40 39 40 38 36 35 31 26 7 4 9 7 13 29 21 18 16 8 11 7 7 6 4 1 5 4 5 4 5 3 1 9 6 8 10 10 10 9 9 9
48 48 45 43 42 39 40 42 41 36 33 28 17 6 5 5 10 9 25 20 15 14 7 13 6 4 1 7 2 4 5 5 3 7 1 2 5 6 9 10 10 10 10 10 9
52 51 47 45 41 40 42 41 38 36 30 17 8 2 4 5 8 17 17 20 5 7 3 4 4 2 1 4 10 5 4 2 6 6 4 3 7 3 6 8 11 10 9 9 10
50 51 50 46 46 46 48 42 10 6 15 6 9 4 5 7 17 14 22 14 6 5 5 4 8 19 16 2 3 4 5 6 4 4 6 9 8 8 5 5 8 9 10 9 11
53 52 51 48 49 52 45 11 16 14 10 2 17 1 3 13 5 7 19 7 6 8 9 4 22 12 9 6 6 4 4 6 1 2 4 3 10 8 4 7 8 11 10 10 6
55 52 53 51 51 44 34 12 24 43 7 5 6 3 4 5 5 10 13 5 7 9 10 8 6 15 12 7 11 6 6 4 3 3 2 2 7 6 7 7 6 9 7 7 11
57 54 55 54 38 36 21 30 41 24 5 6 7 6 4 6 1 7 18 8 4 17 10 5 7 22 8 15 12 13 5 6 7 6 4 3 5 6 6 10 9 13 10 10 9
57 58 58 59 30 22 36 37 38 1 5 11 5 9 8 9 8 5 8 3 9 7 7 7 9 15 16 10 9 8 5 8 5 5 5 1 1 7 2 6 10 15 11 8 6
61 60 61 33 27 35 30 42 12 4 7 10 10 9 9 4 4 5 5 2 5 5 3 5 1 8 10 4 9 6 6 5 4 3 1 5 6 5 5 7 4 4 8 8 7
63 63 54 35 24 39 33 19 4 6 8 9 9 12 14 6 5 5 13 8 7 8 14 3 3 1 3 6 2 7 5 2 1 1 5 1 3 8 6 7 6 6 7 8 8
64 63 41 26 47 35 20 8 5 5 11 4 8 16 9 9 2 7 10 12 7 4 5 6 4 6 4 6 8 4 7 5 6 4 3 3 6 6 7 2 7 4 7 8 8
64 39 34 34 54 34 12 16 8 7 8 10 9 15 4 6 7 6 10 19 9 7 7 6 4 3 1 1 5 4 6 4 6 3 3 4 6 9 6 3 2 6 8 8 8
46 31 28 43 52 15 11 11 5 6 11 18 7 7 9 21 8 9 12 9 6 9 2 6 4 1 1 2 2 6 8 3 2 5 3 4 5 6 6 9 6 7 9 8 7
16 11 24 45 31 6 15 8 4 3 12 7 7 7 8 10 7 12 14 3 10 8 4 4 4 2 2 5 8 3 3 1 5 4 6 2 6 7 8 9 12 12 10 9 8
4 6 34 49 11 7 14 7 4 5 2 4 5 5 11 14 6 8 12 6 13 9 9 3 5 4 5 1 1 0 5 5 7 7 2 4 6 1 5 4 8 10 9 8 7
7 4 21 38 14 16 4 4 3 5 5 5 5 4 5 12 6 4 7 2 8 14 11 7 1 4 3 3 1 5 4 3 5 3 6 5 5 1 3 4 4 8 9 8 8
4 7 5 9 1 20 14 14 5 3 3 4 6 5 8 7 3 8 5 2 2 10 8 8 4 7 10 6 7 6 6 5 5 3 4 7 6 5 6 6 3 4 7 11 11
2 6 6 20 17 22 18 15 7 7 1 5 3 8 9 5 4 6 4 4 2 5 7 6 5 3 3 3 2 6 13 15 10 17 9 13 10 8 7 7 6 7 7 8 8
3 7 3 17 19 25 20 17 16 5 7 4 8 6 4 9 8 9 8 4 6 1 6 2 3 2 3 5 1 0 7 13 22 11 17 4 7 6 5 6 6 8 9 11 11
1 2 9 22 21 21 25 22 20 11 6 4 12 7 5 3 5 5 4 6 9 10 5 8 6 4 5 2 3 5 12 15 11 15 10 13 18 5 3 7 9 10 12 13 12
Wind_Direction
222 207 203 200 199 202 206 203 199 203 196 188 182 183 171 163 153 161 204 199 211 214 179 122 119 106 94 146 157 101 73 204 199 170 234 210 149 205 67 106 72 48 159 171 161
227 204 201 197 197 203 201 202 195 201 192 183 173 171 171 172 176 231 203 199 179 202 207 149 136 96 33 188 123 107 152 208 189 205 213 206 162 151 112 119 32 50 54 144 159
214 201 200 197 193 203 199 197 192 196 190 177 167 161 160 157 127 234 214 195 190 191 176 161 146 129 163 184 220 158 200 194 202 263 213 176 154 118 125 216 194 168 150 149 164
213 199 199 196 191 200 194 190 190 190 182 172 164 159 157 161 170 218 202 196 192 203 191 133 111 135 148 181 197 151 225 198 287 350 153 171 135 129 184 211 174 164 161 159 169
210 196 196 194 191 195 191 184 185 176 170 168 165 156 153 144 246 302 177 180 178 183 192 169 125 138 163 198 135 206 173 90 293 2 135 161 153 170 215 210 147 138 157 167 174
213 194 192 190 189 192 190 183 174 167 164 162 167 158 153 172 206 254 171 179 179 176 172 185 177 35 133 222 162 196 194 127 284 278 109 171 162 137 237 109 133 156 174 176 179
203 193 190 187 185 187 191 182 173 165 161 155 159 156 93 210 295 182 171 179 183 174 147 168 194 115 59 312 244 149 128 53 217 215 233 158 83 207 171 152 159 175 184 181 193
192 192 185 184 178 185 185 181 168 163 163 158 160 143 211 225 111 164 176 172 180 185 180 170 131 162 178 221 119 141 101 151 225 171 265 273 226 229 171 152 184 180 198 196 206
190 188 180 178 175 180 175 171 163 162 157 158 154 146 245 179 211 198 183 179 178 196 202 140 130 163 168 142 96 219 188 172 188 179 55 222 235 223 171 170 185 199 201 206 213
182 183 180 172 172 169 165 153 152 146 145 135 152 134 229 196 166 183 181 186 142 142 81 81 74 25 224 158 197 181 145 171 172 199 143 251 271 254 195 175 197 200 212 212 213
181 178 177 167 167 157 145 125 129 120 167 175 165 209 146 152 148 167 175 154 120 135 151 163 174 204 209 103 230 149 171 195 222 178 142 202 237 238 210 210 213 217 218 217 227
181 176 170 167 167 156 148 160 154 133 131 309 180 158 169 143 115 155 172 146 158 165 131 147 212 184 222 222 247 230 206 215 210 112 138 164 249 251 221 238 219 207 223 218 214
175 172 168 167 162 156 165 138 147 137 133 199 175 184 162 105 145 177 154 138 145 161 176 183 175 198 208 212 218 232 195 225 213 116 73 96 290 246 236 232 236 240 230 218 203
171 171 167 159 156 161 160 153 156 145 100 173 172 234 137 118 183 174 175 149 165 189 156 217 211 180 175 212 196 229 192 209 157 141 193 164 264 258 241 244 216 231 220 224 208
169 169 163 163 149 170 165 165 164 95 138 163 172 167 153 152 138 218 184 118 162 170 137 210 163 187 190 196 181 225 149 175 158 136 122 206 110 265 249 249 237 231 227 212 213
168 164 160 160 150 160 166 163 173 132 206 177 153 159 139 163 146 132 151 104 159 134 66 184 236 170 180 146 174 137 99 60 62 99 213 205 164 268 205 210 252 192 208 184 164
169 164 162 154 159 163 149 149 122 186 156 174 164 164 158 146 124 154 178 182 168 140 178 136 189 220 134 105 86 157 147 128 90 226 210 101 154 247 263 248 232 199 180 156 153
165 162 162 160 165 163 155 152 137 203 172 143 133 140 159 133 93 162 139 199 245 155 127 148 203 177 167 182 169 188 161 156 173 185 223 97 225 245 239 285 262 234 158 144 160
158 155 159 166 171 169 167 186 191 170 148 124 93 143 129 169 131 151 194 195 191 196 150 148 197 338 86 72 159 183 204 145 98 27 74 215 280 295 231 248 104 147 141 172 171
155 153 166 168 167 161 184 187 166 178 123 138 140 163 167 175 148 175 172 192 198 185 169 186 128 342 322 198 98 173 156 129 356 131 241 272 280 235 237 221 172 176 185 192 168
140 150 162 158 152 159 194 185 166 155 138 141 149 146 162 167 149 173 186 210 178 187 139 125 101 262 147 213 168 143 192 125 117 149 171 184 258 224 220 198 195 202 194 182 171
135 136 162 154 164 180 193 170 140 151 141 126 114 111 162 162 134 167 183 190 184 148 154 130 116 146 196 238 291 63 238 164 185 208 199 159 259 183 227 212 212 196 182 166 166
123 117 159 167 178 184 167 153 93 145 155 155 130 144 156 162 134 163 176 153 162 174 160 175 158 97 39 3 157 197 209 174 108 74 195 153 252 127 275 278 228 180 163 161 156
134 133 144 183 186 171 166 181 125 10 126 119 119 107 113 159 69 171 132 153 162 191 141 111 160 166 190 193 137 187 188 188 137 160 171 221 228 274 219 204 184 163 161 168 177
21 153 173 176 192 180 179 172 143 151 197 161 82 158 141 129 105 142 130 123 56 137 136 150 200 134 49 357 118 168 184 187 198 215 194 237 210 231 236 216 191 177 164 163 178
120 158 135 167 165 172 179 199 172 144 146 181 136 139 138 152 179 176 132 160 170 138 141 122 238 111 12 346 73 306 198 188 220 218 238 346 250 211 187 135 178 180 177 190 196
10 11 153 161 170 177 192 182 174 135 9 137 132 108 85 119 95 95 74 111 147 151 143 138 130 116 231 334 72 305 207 210 217 217 212 222 239 159 193 197 194 193 198 205 201